Regional Weather Roundup
Issued by NWS

Home | Current Version | Previous Version | Text Only | Print | Product List | Glossary On
Versions: 1 2 3 4 5 6 7 8 9 10 11 12 13 14 15 16 17 18 19 20 21 22 23 24 25 26 27 28 29 30 31 32 33 34 35 36 37 38 39 40 41 42 43 44 45 46 47 48 49 50
000
ASHW40 PHFO 200910
RWRHI

WEATHER ROUNDUP FOR HAWAII
NATIONAL WEATHER SERVICE HONOLULU HI
1100 PM HST SAT APR 19 2014

THIS IS AN AUTOMATED REPORT THAT HAS NOT BEEN QUALITY CONTROLLED.

NOTE..."FAIR" INDICATES FEW OR NO CLOUDS BELOW 12,000 FEET WITH NO
SIGNIFICANT WEATHER AND/OR OBSTRUCTIONS TO VISIBILITY.

* - THESE SITES REPORT LIMITED FIELDS

HIZ001>004-201000-
KAUAI-NIIHAU-

CITY           SKY/WX    TMP DP  RH WIND       PRES   REMARKS
LIHUE APT      PTCLDY    73  64  73 NE22      30.18S
PORT ALLEN*      N/A     73 N/A N/A E13G23      N/A
POIPU*           N/A     73 N/A N/A NE13G22     N/A
PRINCEVILLE*   NOT AVBL
KOKOLE POINT*  NOT AVBL
MOLOAA DAIRY*  NOT AVBL
WAIMEA HTS*    NOT AVBL
PUU OPAE*      NOT AVBL
PUU LUA*       NOT AVBL
MAKAHA RIDGE*  NOT AVBL
$$

HIZ005>011-201000-
OAHU-

CITY           SKY/WX    TMP DP  RH WIND       PRES   REMARKS
HONOLULU       MOCLDY    75  63  66 NE12      30.13S
KALAELOA       PTCLDY    73  63  70 VRB3      30.14F
KANEOHE MCB    CLOUDY    70  62  76 E8        30.15S
WHEELER FIELD  CLOUDY    72  63  73 NE10      30.15F
BELLOWS*       NOT AVBL
KAHUKU*        NOT AVBL
WHEELER*       NOT AVBL
WAIANAE HARBOR NOT AVBL
DILLINGHAM*      N/A     73  68  83 E1G13       N/A
KAHUKU TRN*      N/A     68  68 100 E8G26       N/A
KAWAILOA*      NOT AVBL
KII*             N/A     72  66  83 E10G29      N/A
MAKUA RANGE*     N/A     73  66  78 NE12G24     N/A
OAHU FOREST NW NOT AVBL
SCHOFIELD BRK*   N/A     68  61  77 MISG        N/A
SCHOFIELD S*     N/A     64 N/A N/A CALM        N/A
WAIANAE VLY*   NOT AVBL
KUAOKALA*      NOT AVBL
HONOULIUULI*   NOT AVBL
MOKUOLOE IS*     N/A    N/A N/A N/A MISG        N/A
PALEHUA*       NOT AVBL
WAIAWA PHB*    NOT AVBL
$$

HIZ012>013-201000-
MOLOKAI-

CITY           SKY/WX    TMP DP  RH WIND       PRES   REMARKS
MOLOKAI AIRPT  CLOUDY    71  69  93 NE14G22   30.15S
KALAUPAPA      NOT AVBL
MAKAPULAPAI*   NOT AVBL
MOLOKAI 1*     NOT AVBL
PUU ALII*      NOT AVBL
$$

HIZ016-201000-
KAHOOLAWE-

CITY           SKY/WX    TMP DP  RH WIND       PRES   REMARKS
KAHOOLAWE*     NOT AVBL
HAKIOAWA*      NOT AVBL
HONOKANAIA*      N/A     74  62  66 NE12G26   30.12S
KANELOA*       NOT AVBL
KEALIALALO*    NOT AVBL
LUA MAKIKA*    NOT AVBL
$$

HIZ014>015-201000-
LANAI-

CITY           SKY/WX    TMP DP  RH WIND       PRES   REMARKS
LANAI CITY     FAIR      68  64  86 NE21G26   30.16S
LANAI 1*       NOT AVBL
$$

HIZ017>028-201000-
MAUI-

CITY           SKY/WX    TMP DP  RH WIND       PRES   REMARKS
KAHULUI        PTCLDY    73  66  78 NE14      30.14R
KAPALUA-W MAUI NOT AVBL
HANA AIRPORT   NOT AVBL
HANA*          NOT AVBL
HALEAKALA SUMM   N/A     43  27  52 NE21G37     N/A
MAALAEA BAY*   NOT AVBL
HALEAKALA*     NOT AVBL
KAUPO GAP*     NOT AVBL
KULA 1*          N/A     52  32  47 NE3         N/A
$$

HIZ023>026-201000-
BIG ISLAND OF HAWAII COAST AND LOWER SLOPES-

CITY           SKY/WX    TMP DP  RH WIND       PRES   REMARKS
KAILUA KONA    MOCLDY    77  63  61 S8        30.06R
HILO           CLOUDY    68  67  96 W8        30.14F
HONOKAA*       NOT AVBL
KAWAIHAE MWT*  NOT AVBL
KAWAIHAE*        N/A     77 N/A N/A N3          N/A
SOUTH POINT*   NOT AVBL
UPOLU AIRPORT* NOT AVBL
KAMUELA*       LGT RAIN  61  59  94 NE22      30.17S
HAKALAU*         N/A     45  43  93 W3          N/A
KALOKO-HONOKO* NOT AVBL
PALI 2*          N/A     63  55  77 N23G37      N/A
KEALAKOMO*       N/A     73  59  60 N15G24      N/A
KAUPULEHU*     NOT AVBL
KAPAPALA*        N/A     63  59  86 W3          N/A
LOWER KAHUKU*  NOT AVBL
PUHE CS*       NOT AVBL
PUHO CS*       NOT AVBL
PTA KEAMUKU*     N/A     57  55  94 NE7         N/A
WAIKOLOA*      NOT AVBL
$$

HIZ027>028-201000-
BIG ISLAND OF HAWAII INTERIOR AND SUMMMITS-

CITY           SKY/WX    TMP DP  RH WIND       PRES   REMARKS
BRADSHAW FIELD PTCLDY    53  43  69 NE5       30.39R
MK VISITOR CEN NOT AVBL
MAUNA KEA*       N/A     39  -6  14 SE10        N/A
MAUNA LOA*     NOT AVBL
MAUNA LOA 1*   NOT AVBL
PTA KIPUKA*      N/A     55  52  88 S5          N/A
PTA RANGE 17*    N/A     57  45  62 E14G26      N/A
PTA WEST*        N/A     55  52  88 E8G18       N/A
NENE CABIN*    NOT AVBL
AHUMOA*        NOT AVBL
PTA PORTABLE*  NOT AVBL
PUU MALI*      NOT AVBL
$$

HIC003-201000-
NORTHWEST ISLANDS-

CITY           SKY/WX    TMP DP  RH WIND       PRES   REMARKS
MIDWAY ISLAND  CLEAR     72  70  94 SE14      30.22S
MIDWAY NOS*    NOT AVBL
FRENCH FRIGATE NOT AVBL
$$

PHZ110>124-180-201000-
BUOY REPORTS

STATION/POSITION TIME  TEMP    WIND        PRES    WAVE   SWELL
                       AIR SEA DIR/SP/G            HT/PER HT/DIR
                 (UTC) (F)     (DEG/KT/KT) (MB)    (FT/S) (FT/D)
BUOY 51001       NOT AVBL
BUOY 51101       0900   72 74   60/ 19/ 23 1022.8R   8/12   7/310
BUOY 51100       0800   73 73   50/ 14/ 17 1022.7R
BUOY 51003       0800   77 78   50/ 14/ 16 1018.4R   7/ 8   5
BUOY 51004       0900   78 78   70/ 16/ 21 1016.1R
BARBERS PT BUOY  NOT AVBL
WAIMEA BAY BUOY  0900      75                N/A     5/11
KAILUA BAY BUOY  0900      76                N/A     6/ 7   2/360
LANAI BUOY       0900      78                N/A     2/13   2/220
BARBERS PT 2     0900      76                N/A     3/13   2/260
PAUWELA MAUI     NOT AVBL
HILO             0900      78                N/A     6/ 9   2/100
KANEOHE BAY BUOY 0900      75                N/A     6/ 8   2/340
HANALEI KAUAI    0900      77                N/A     7/ 6   3/320
KAHULUI HARBOR   0900   74 76   40/ 13/ 17 1020.2S
HONOLULU HARBOR  0900   76     120/  3/  8 1020.4F
KILO NALU        NOT AVBL
HILO HARBOR      0900   68 78  230/ 10/ 12 1020.2F
MOKUOLOE         0900   75 76   80/ 10/ 12 1021.2S
NAWILIWILI       0900      76                N/A
WHOTS BUOY       NOT AVBL
BUOY 51028       NOT AVBL
$$

......................KEY........................................
  SKY/WX - SKY CONDITIONS/PRESENT WEATHER
  TMP    - TEMPERATURE IN FAHRENHEIT
  DWPT   - DEWPOINT IN FAHRENHEIT
  RH     - RELATIVE HUMIDITY IN PERCENT
  WIND   - DIRECTION AND SPEED /MPH FOR ISLANDS...KTS FOR BUOYS/
  PRES   - MEAN SEA LEVEL PRESSURE IN INCHES OF HG
  VSB    - VISIBILITY IN MILES
  HX     - HEAT INDEX
  WCI    - WIND CHILL INDEX
  VRB    - VARIABLE WIND DIRECTION
  N/A    - NOT AVAILABLE



USA.gov is the U.S. government's official web portal to all federal, state and local government web resources and services.